Terug naar catalogus

STARLINK-4778

ActiefCommunicatieVLEO
NORAD 53836·PAYLOAD·🇺🇸 United States

Gelanceerd Sep 19, 2022 vanaf Cape Canaveral Space Force Station

Loading…

Volgende Passages (komende 24 uur)

TLE

VersSource: CelesTrak SupGP

Epoch: Sep 15, 2026, 02:20 UTC

1 53836C 22114U   26258.09770833  .00714670  00000+0  25444-1 0  2587
2 53836  53.1593 139.2911 0001415  84.1399 277.8339 15.28053982    17

Volg STARLINK-4778 in realtime met AllMySat

Download on the App Store